owner,sensor,date,latitude,longitude,sea_surface_height_above_sea_level,qcFlag 
TCOON,ioos:station:TCOON:031:1,2016-03-01T00:30:00Z,28.4073,-96.7122,0.416,1111122 
TCOON,ioos:station:TCOON:031:1,2016-03-01T02:18:00Z,28.4073,-96.7122,0.425,1111122 
TCOON,ioos:station:TCOON:031:1,2016-03-01T03:18:00Z,28.4073,-96.7122,0.419,1111122 
TCOON,ioos:station:TCOON:031:1,2016-03-01T04:18:00Z,28.4073,-96.7122,0.419,1111122 
TCOON,ioos:station:TCOON:031:1,2016-03-01T09:18:00Z,28.4073,-96.7122,0.405,1111122 
TCOON,ioos:station:TCOON:031:1,2016-03-01T10:18:00Z,28.4073,-96.7122,0.404,1111122 
TCOON,ioos:station:TCOON:031:1,2016-03-01T11:18:00Z,28.4073,-96.7122,0.407,1111122 
TCOON,ioos:station:TCOON:031:1,2016-03-01T12:18:00Z,28.4073,-96.7122,0.402,1111122 
TCOON,ioos:station:TCOON:031:1,2016-03-01T13:18:00Z,28.4073,-96.7122,0.384,1111122 
TCOON,ioos:station:TCOON:031:1,2016-03-01T15:36:00Z,28.4073,-96.7122,0.394,1111122 
TCOON,ioos:station:TCOON:031:1,2016-03-01T16:18:00Z,28.4073,-96.7122,0.42,1111122 
TCOON,ioos:station:TCOON:031:1,2016-03-01T17:18:00Z,28.4073,-96.7122,0.39,1111122 
TCOON,ioos:station:TCOON:031:1,2016-03-01T18:18:00Z,28.4073,-96.7122,0.375,1111122 
TCOON,ioos:station:TCOON:031:1,2016-03-01T19:36:00Z,28.4073,-96.7122,0.392,1111122 
TCOON,ioos:station:TCOON:031:1,2016-03-01T20:24:00Z,28.4073,-96.7122,0.374,1111122 
TCOON,ioos:station:TCOON:031:1,2016-03-01T21:24:00Z,28.4073,-96.7122,0.394,1111122 
TCOON,ioos:station:TCOON:031:1,2016-03-01T22:18:00Z,28.4073,-96.7122,0.411,1111122 
TCOON,ioos:station:TCOON:031:1,2016-03-01T23:18:00Z,28.4073,-96.7122,0.409,1111122 
TCOON,ioos:station:TCOON:031:1,2016-03-02T00:18:00Z,28.4073,-96.7122,0.401,1111122 
TCOON,ioos:station:TCOON:031:1,2016-03-02T01:18:00Z,28.4073,-96.7122,0.39,1111122 
TCOON,ioos:station:TCOON:031:1,2016-03-02T02:18:00Z,28.4073,-96.7122,0.399,1111122 
TCOON,ioos:station:TCOON:031:1,2016-03-02T03:24:00Z,28.4073,-96.7122,0.423,1111122 
TCOON,ioos:station:TCOON:031:1,2016-03-02T04:24:00Z,28.4073,-96.7122,0.424,1111122 
TCOON,ioos:station:TCOON:031:1,2016-03-02T05:54:00Z,28.4073,-96.7122,0.415,1111122 
TCOON,ioos:station:TCOON:031:1,2016-03-02T06:24:00Z,28.4073,-96.7122,0.408,1111122 
TCOON,ioos:station:TCOON:031:1,2016-03-02T07:24:00Z,28.4073,-96.7122,0.387,1111122 
TCOON,ioos:station:TCOON:031:1,2016-03-02T08:24:00Z,28.4073,-96.7122,0.37,1111122 
TCOON,ioos:station:TCOON:031:1,2016-03-02T09:42:00Z,28.4073,-96.7122,0.373,1111122 
TCOON,ioos:station:TCOON:031:1,2016-03-02T10:18:00Z,28.4073,-96.7122,0.39,1111122 
TCOON,ioos:station:TCOON:031:1,2016-03-02T11:18:00Z,28.4073,-96.7122,0.396,1111122 
TCOON,ioos:station:TCOON:031:1,2016-03-02T12:18:00Z,28.4073,-96.7122,0.423,1111122 
TCOON,ioos:station:TCOON:031:1,2016-03-02T13:18:00Z,28.4073,-96.7122,0.433,1111122 
TCOON,ioos:station:TCOON:031:1,2016-03-02T14:18:00Z,28.4073,-96.7122,0.436,1111122 
TCOON,ioos:station:TCOON:031:1,2016-03-02T15:18:00Z,28.4073,-96.7122,0.421,1111122 
TCOON,ioos:station:TCOON:031:1,2016-03-02T16:18:00Z,28.4073,-96.7122,0.442,1111122 
TCOON,ioos:station:TCOON:031:1,2016-03-02T17:18:00Z,28.4073,-96.7122,0.476,1111122 
TCOON,ioos:station:TCOON:031:1,2016-03-02T18:18:00Z,28.4073,-96.7122,0.483,1111122 
TCOON,ioos:station:TCOON:031:1,2016-03-02T19:18:00Z,28.4073,-96.7122,0.463,1111122 
TCOON,ioos:station:TCOON:031:1,2016-03-02T20:18:00Z,28.4073,-96.7122,0.467,1111122 
TCOON,ioos:station:TCOON:031:1,2016-03-02T21:18:00Z,28.4073,-96.7122,0.481,1111122 
TCOON,ioos:station:TCOON:031:1,2016-03-02T22:18:00Z,28.4073,-96.7122,0.526,1111122 
TCOON,ioos:station:TCOON:031:1,2016-03-02T23:18:00Z,28.4073,-96.7122,0.522,1111122 
TCOON,ioos:station:TCOON:031:1,2016-03-03T00:18:00Z,28.4073,-96.7122,0.5,1111122 
TCOON,ioos:station:TCOON:031:1,2016-03-03T01:18:00Z,28.4073,-96.7122,0.499,1111122 
TCOON,ioos:station:TCOON:031:1,2016-03-03T02:18:00Z,28.4073,-96.7122,0.506,1111122 
TCOON,ioos:station:TCOON:031:1,2016-03-03T03:18:00Z,28.4073,-96.7122,0.522,1111122 
TCOON,ioos:station:TCOON:031:1,2016-03-03T04:18:00Z,28.4073,-96.7122,0.56,1111122 
TCOON,ioos:station:TCOON:031:1,2016-03-03T05:18:00Z,28.4073,-96.7122,0.566,1111122 
TCOON,ioos:station:TCOON:031:1,2016-03-03T06:18:00Z,28.4073,-96.7122,0.604,1111122 
TCOON,ioos:station:TCOON:031:1,2016-03-03T07:18:00Z,28.4073,-96.7122,0.619,1111122 
TCOON,ioos:station:TCOON:031:1,2016-03-03T08:18:00Z,28.4073,-96.7122,0.602,1111122 
TCOON,ioos:station:TCOON:031:1,2016-03-03T09:18:00Z,28.4073,-96.7122,0.613,1111122 
TCOON,ioos:station:TCOON:031:1,2016-03-03T10:18:00Z,28.4073,-96.7122,0.59,1111122 
TCOON,ioos:station:TCOON:031:1,2016-03-03T11:18:00Z,28.4073,-96.7122,0.582,1111122 
TCOON,ioos:station:TCOON:031:1,2016-03-03T12:18:00Z,28.4073,-96.7122,0.539,1111122 
TCOON,ioos:station:TCOON:031:1,2016-03-03T13:18:00Z,28.4073,-96.7122,0.526,1111122 
TCOON,ioos:station:TCOON:031:1,2016-03-03T14:18:00Z,28.4073,-96.7122,0.521,1111122 
TCOON,ioos:station:TCOON:031:1,2016-03-03T15:18:00Z,28.4073,-96.7122,0.498,1111122 
TCOON,ioos:station:TCOON:031:1,2016-03-03T16:18:00Z,28.4073,-96.7122,0.501,1111122 
TCOON,ioos:station:TCOON:031:1,2016-03-03T17:18:00Z,28.4073,-96.7122,0.509,1111122 
TCOON,ioos:station:TCOON:031:1,2016-03-03T18:18:00Z,28.4073,-96.7122,0.478,1111122 
TCOON,ioos:station:TCOON:031:1,2016-03-03T19:24:00Z,28.4073,-96.7122,0.461,1111122 
TCOON,ioos:station:TCOON:031:1,2016-03-03T20:24:00Z,28.4073,-96.7122,0.496,1111122 
TCOON,ioos:station:TCOON:031:1,2016-03-03T21:18:00Z,28.4073,-96.7122,0.495,1111122 
TCOON,ioos:station:TCOON:031:1,2016-03-03T22:18:00Z,28.4073,-96.7122,0.517,1111122 
TCOON,ioos:station:TCOON:031:1,2016-03-03T23:18:00Z,28.4073,-96.7122,0.515,1111122 
TCOON,ioos:station:TCOON:031:1,2016-03-04T00:18:00Z,28.4073,-96.7122,0.54,1111122 
TCOON,ioos:station:TCOON:031:1,2016-03-04T01:18:00Z,28.4073,-96.7122,0.532,1111122 
TCOON,ioos:station:TCOON:031:1,2016-03-04T02:18:00Z,28.4073,-96.7122,0.519,1111122 
TCOON,ioos:station:TCOON:031:1,2016-03-04T03:18:00Z,28.4073,-96.7122,0.503,1111122 
TCOON,ioos:station:TCOON:031:1,2016-03-04T04:18:00Z,28.4073,-96.7122,0.499,1111122 
TCOON,ioos:station:TCOON:031:1,2016-03-04T05:18:00Z,28.4073,-96.7122,0.486,1111122 
TCOON,ioos:station:TCOON:031:1,2016-03-04T06:18:00Z,28.4073,-96.7122,0.464,1111122 
TCOON,ioos:station:TCOON:031:1,2016-03-04T07:18:00Z,28.4073,-96.7122,0.489,1111122 
TCOON,ioos:station:TCOON:031:1,2016-03-04T08:18:00Z,28.4073,-96.7122,0.48,1111122 
TCOON,ioos:station:TCOON:031:1,2016-03-04T09:36:00Z,28.4073,-96.7122,0.502,1111122 
TCOON,ioos:station:TCOON:031:1,2016-03-04T10:18:00Z,28.4073,-96.7122,0.482,1111122 
TCOON,ioos:station:TCOON:031:1,2016-03-04T11:18:00Z,28.4073,-96.7122,0.475,1111122 
TCOON,ioos:station:TCOON:031:1,2016-03-04T12:18:00Z,28.4073,-96.7122,0.475,1111122 
TCOON,ioos:station:TCOON:031:1,2016-03-04T13:18:00Z,28.4073,-96.7122,0.452,1111122 
TCOON,ioos:station:TCOON:031:1,2016-03-04T14:18:00Z,28.4073,-96.7122,0.469,1111122 
TCOON,ioos:station:TCOON:031:1,2016-03-04T15:18:00Z,28.4073,-96.7122,0.46,1111122 
TCOON,ioos:station:TCOON:031:1,2016-03-04T16:18:00Z,28.4073,-96.7122,0.474,1111122 
TCOON,ioos:station:TCOON:031:1,2016-03-04T17:18:00Z,28.4073,-96.7122,0.473,1111122 
TCOON,ioos:station:TCOON:031:1,2016-03-04T18:18:00Z,28.4073,-96.7122,0.462,1111122 
TCOON,ioos:station:TCOON:031:1,2016-03-04T19:18:00Z,28.4073,-96.7122,0.452,1111122 
TCOON,ioos:station:TCOON:031:1,2016-03-04T20:18:00Z,28.4073,-96.7122,0.468,1111122 
TCOON,ioos:station:TCOON:031:1,2016-03-04T21:18:00Z,28.4073,-96.7122,0.464,1111122 
TCOON,ioos:station:TCOON:031:1,2016-03-04T22:18:00Z,28.4073,-96.7122,0.468,1111122 
TCOON,ioos:station:TCOON:031:1,2016-03-04T23:18:00Z,28.4073,-96.7122,0.469,1111122 
TCOON,ioos:station:TCOON:031:1,2016-03-05T00:18:00Z,28.4073,-96.7122,0.468,1111122 
TCOON,ioos:station:TCOON:031:1,2016-03-05T01:18:00Z,28.4073,-96.7122,0.473,1111122 
TCOON,ioos:station:TCOON:031:1,2016-03-05T02:18:00Z,28.4073,-96.7122,0.477,1111122 
TCOON,ioos:station:TCOON:031:1,2016-03-05T03:18:00Z,28.4073,-96.7122,0.486,1111122 
TCOON,ioos:station:TCOON:031:1,2016-03-05T04:18:00Z,28.4073,-96.7122,0.491,1111122 
TCOON,ioos:station:TCOON:031:1,2016-03-05T05:18:00Z,28.4073,-96.7122,0.475,1111122 
TCOON,ioos:station:TCOON:031:1,2016-03-05T06:18:00Z,28.4073,-96.7122,0.481,1111122 
TCOON,ioos:station:TCOON:031:1,2016-03-05T07:18:00Z,28.4073,-96.7122,0.494,1111122 
TCOON,ioos:station:TCOON:031:1,2016-03-05T08:18:00Z,28.4073,-96.7122,0.498,1111122 
TCOON,ioos:station:TCOON:031:1,2016-03-05T09:30:00Z,28.4073,-96.7122,0.487,1111122 
TCOON,ioos:station:TCOON:031:1,2016-03-05T10:18:00Z,28.4073,-96.7122,0.483,1111122 
TCOON,ioos:station:TCOON:031:1,2016-03-05T11:18:00Z,28.4073,-96.7122,0.474,1111122 
TCOON,ioos:station:TCOON:031:1,2016-03-05T12:18:00Z,28.4073,-96.7122,0.472,1111122 
TCOON,ioos:station:TCOON:031:1,2016-03-05T13:18:00Z,28.4073,-96.7122,0.461,1111122 
TCOON,ioos:station:TCOON:031:1,2016-03-05T14:18:00Z,28.4073,-96.7122,0.454,1111122 
TCOON,ioos:station:TCOON:031:1,2016-03-05T15:18:00Z,28.4073,-96.7122,0.455,1111122 
TCOON,ioos:station:TCOON:031:1,2016-03-05T16:18:00Z,28.4073,-96.7122,0.463,1111122 
TCOON,ioos:station:TCOON:031:1,2016-03-05T17:18:00Z,28.4073,-96.7122,0.468,1111122 
TCOON,ioos:station:TCOON:031:1,2016-03-05T18:18:00Z,28.4073,-96.7122,0.464,1111122 
TCOON,ioos:station:TCOON:031:1,2016-03-05T19:18:00Z,28.4073,-96.7122,0.453,1111122 
TCOON,ioos:station:TCOON:031:1,2016-03-05T20:18:00Z,28.4073,-96.7122,0.455,1111122 
TCOON,ioos:station:TCOON:031:1,2016-03-05T21:18:00Z,28.4073,-96.7122,0.47,1111122 
TCOON,ioos:station:TCOON:031:1,2016-03-05T22:18:00Z,28.4073,-96.7122,0.467,1111122 
TCOON,ioos:station:TCOON:031:1,2016-03-05T23:18:00Z,28.4073,-96.7122,0.47,1111122 
TCOON,ioos:station:TCOON:031:1,2016-03-06T00:24:00Z,28.4073,-96.7122,0.464,1111122 
TCOON,ioos:station:TCOON:031:1,2016-03-06T01:18:00Z,28.4073,-96.7122,0.481,1111122 
TCOON,ioos:station:TCOON:031:1,2016-03-06T02:18:00Z,28.4073,-96.7122,0.497,1111122 
TCOON,ioos:station:TCOON:031:1,2016-03-06T03:18:00Z,28.4073,-96.7122,0.491,1111122 
TCOON,ioos:station:TCOON:031:1,2016-03-06T04:18:00Z,28.4073,-96.7122,0.502,1111122 
TCOON,ioos:station:TCOON:031:1,2016-03-06T05:18:00Z,28.4073,-96.7122,0.511,1111122 
TCOON,ioos:station:TCOON:031:1,2016-03-06T06:18:00Z,28.4073,-96.7122,0.507,1111122 
TCOON,ioos:station:TCOON:031:1,2016-03-06T07:18:00Z,28.4073,-96.7122,0.516,1111122 
TCOON,ioos:station:TCOON:031:1,2016-03-06T08:18:00Z,28.4073,-96.7122,0.507,1111122 
TCOON,ioos:station:TCOON:031:1,2016-03-06T09:36:00Z,28.4073,-96.7122,0.505,1111122 
TCOON,ioos:station:TCOON:031:1,2016-03-06T10:18:00Z,28.4073,-96.7122,0.504,1111122 
TCOON,ioos:station:TCOON:031:1,2016-03-06T11:18:00Z,28.4073,-96.7122,0.512,1111122 
TCOON,ioos:station:TCOON:031:1,2016-03-06T12:18:00Z,28.4073,-96.7122,0.511,1111122 
TCOON,ioos:station:TCOON:031:1,2016-03-06T13:18:00Z,28.4073,-96.7122,0.493,1111122 
TCOON,ioos:station:TCOON:031:1,2016-03-06T14:18:00Z,28.4073,-96.7122,0.479,1111122 
TCOON,ioos:station:TCOON:031:1,2016-03-06T15:18:00Z,28.4073,-96.7122,0.5,1111122 
TCOON,ioos:station:TCOON:031:1,2016-03-06T16:18:00Z,28.4073,-96.7122,0.519,1111122 
TCOON,ioos:station:TCOON:031:1,2016-03-06T17:18:00Z,28.4073,-96.7122,0.499,1111122 
TCOON,ioos:station:TCOON:031:1,2016-03-06T18:18:00Z,28.4073,-96.7122,0.478,1111122 
TCOON,ioos:station:TCOON:031:1,2016-03-06T19:18:00Z,28.4073,-96.7122,0.507,1111122 
TCOON,ioos:station:TCOON:031:1,2016-03-06T20:18:00Z,28.4073,-96.7122,0.519,1111122 
TCOON,ioos:station:TCOON:031:1,2016-03-06T21:18:00Z,28.4073,-96.7122,0.511,1111122 
TCOON,ioos:station:TCOON:031:1,2016-03-06T22:18:00Z,28.4073,-96.7122,0.497,1111122 
TCOON,ioos:station:TCOON:031:1,2016-03-06T23:18:00Z,28.4073,-96.7122,0.507,1111122 
TCOON,ioos:station:TCOON:031:1,2016-03-07T00:18:00Z,28.4073,-96.7122,0.518,1111122 
TCOON,ioos:station:TCOON:031:1,2016-03-07T01:18:00Z,28.4073,-96.7122,0.496,1111122 
TCOON,ioos:station:TCOON:031:1,2016-03-07T02:18:00Z,28.4073,-96.7122,0.529,1111122 
TCOON,ioos:station:TCOON:031:1,2016-03-07T03:18:00Z,28.4073,-96.7122,0.535,1111122 
TCOON,ioos:station:TCOON:031:1,2016-03-07T04:18:00Z,28.4073,-96.7122,0.563,1111122 
TCOON,ioos:station:TCOON:031:1,2016-03-07T05:18:00Z,28.4073,-96.7122,0.547,1111122 
TCOON,ioos:station:TCOON:031:1,2016-03-07T06:18:00Z,28.4073,-96.7122,0.544,1111122 
TCOON,ioos:station:TCOON:031:1,2016-03-07T07:18:00Z,28.4073,-96.7122,0.537,1111122 
TCOON,ioos:station:TCOON:031:1,2016-03-07T08:18:00Z,28.4073,-96.7122,0.552,1111122 
TCOON,ioos:station:TCOON:031:1,2016-03-07T09:42:00Z,28.4073,-96.7122,0.6,1111122 
TCOON,ioos:station:TCOON:031:1,2016-03-07T10:18:00Z,28.4073,-96.7122,0.637,1111122 
TCOON,ioos:station:TCOON:031:1,2016-03-07T11:18:00Z,28.4073,-96.7122,0.607,1111122 
TCOON,ioos:station:TCOON:031:1,2016-03-07T12:42:00Z,28.4073,-96.7122,0.578,1111122 
TCOON,ioos:station:TCOON:031:1,2016-03-07T13:24:00Z,28.4073,-96.7122,0.569,1111122 
TCOON,ioos:station:TCOON:031:1,2016-03-07T14:24:00Z,28.4073,-96.7122,0.574,1111122 
TCOON,ioos:station:TCOON:031:1,2016-03-07T15:24:00Z,28.4073,-96.7122,0.613,1111122 
TCOON,ioos:station:TCOON:031:1,2016-03-07T16:18:00Z,28.4073,-96.7122,0.629,1111122 
TCOON,ioos:station:TCOON:031:1,2016-03-07T17:24:00Z,28.4073,-96.7122,0.616,1111122 
TCOON,ioos:station:TCOON:031:1,2016-03-07T18:36:00Z,28.4073,-96.7122,0.616,1111122 
TCOON,ioos:station:TCOON:031:1,2016-03-07T19:18:00Z,28.4073,-96.7122,0.63,1111122 
TCOON,ioos:station:TCOON:031:1,2016-03-07T20:24:00Z,28.4073,-96.7122,0.627,1111122 
TCOON,ioos:station:TCOON:031:1,2016-03-07T21:24:00Z,28.4073,-96.7122,0.603,1111122 
TCOON,ioos:station:TCOON:031:1,2016-03-08T10:30:00Z,28.4073,-96.7122,0.692,1111122 
TCOON,ioos:station:TCOON:031:1,2016-03-08T11:24:00Z,28.4073,-96.7122,0.669,1111122 
TCOON,ioos:station:TCOON:031:1,2016-03-08T12:18:00Z,28.4073,-96.7122,0.727,1111122 
TCOON,ioos:station:TCOON:031:1,2016-03-08T13:18:00Z,28.4073,-96.7122,0.71,1111122 
TCOON,ioos:station:TCOON:031:1,2016-03-08T14:18:00Z,28.4073,-96.7122,0.733,1111122 
TCOON,ioos:station:TCOON:031:1,2016-03-08T15:18:00Z,28.4073,-96.7122,0.761,1111122 
TCOON,ioos:station:TCOON:031:1,2016-03-08T16:18:00Z,28.4073,-96.7122,0.726,1111122 
TCOON,ioos:station:TCOON:031:1,2016-03-08T17:18:00Z,28.4073,-96.7122,0.717,1111122 
TCOON,ioos:station:TCOON:031:1,2016-03-08T18:24:00Z,28.4073,-96.7122,0.723,1111122 
TCOON,ioos:station:TCOON:031:1,2016-03-08T19:24:00Z,28.4073,-96.7122,0.76,1111122 
TCOON,ioos:station:TCOON:031:1,2016-03-08T20:24:00Z,28.4073,-96.7122,0.779,1111122 
TCOON,ioos:station:TCOON:031:1,2016-03-08T21:24:00Z,28.4073,-96.7122,0.712,1111122 
TCOON,ioos:station:TCOON:031:1,2016-03-08T22:18:00Z,28.4073,-96.7122,0.659,1111122 
TCOON,ioos:station:TCOON:031:1,2016-03-08T23:18:00Z,28.4073,-96.7122,0.653,1111122 
TCOON,ioos:station:TCOON:031:1,2016-03-09T00:18:00Z,28.4073,-96.7122,0.675,1111122 
TCOON,ioos:station:TCOON:031:1,2016-03-09T01:18:00Z,28.4073,-96.7122,0.693,1111122 
TCOON,ioos:station:TCOON:031:1,2016-03-09T02:18:00Z,28.4073,-96.7122,0.701,1111122 
TCOON,ioos:station:TCOON:031:1,2016-03-09T03:24:00Z,28.4073,-96.7122,0.71,1111122 
TCOON,ioos:station:TCOON:031:1,2016-03-09T04:36:00Z,28.4073,-96.7122,0.71,1111122 
TCOON,ioos:station:TCOON:031:1,2016-03-09T05:48:00Z,28.4073,-96.7122,0.706,1111122 
TCOON,ioos:station:TCOON:031:1,2016-03-09T06:30:00Z,28.4073,-96.7122,0.728,1111122 
TCOON,ioos:station:TCOON:031:1,2016-03-09T07:18:00Z,28.4073,-96.7122,0.711,1111122 
TCOON,ioos:station:TCOON:031:1,2016-03-09T08:18:00Z,28.4073,-96.7122,0.717,1111122 
TCOON,ioos:station:TCOON:031:1,2016-03-09T09:42:00Z,28.4073,-96.7122,0.699,1111122 
TCOON,ioos:station:TCOON:031:1,2016-03-09T10:18:00Z,28.4073,-96.7122,0.727,1111122 
TCOON,ioos:station:TCOON:031:1,2016-03-09T11:18:00Z,28.4073,-96.7122,0.695,1111122 
TCOON,ioos:station:TCOON:031:1,2016-03-09T12:18:00Z,28.4073,-96.7122,0.735,1111122 
TCOON,ioos:station:TCOON:031:1,2016-03-09T13:18:00Z,28.4073,-96.7122,0.728,1111122 
TCOON,ioos:station:TCOON:031:1,2016-03-09T14:18:00Z,28.4073,-96.7122,0.756,1111122 
TCOON,ioos:station:TCOON:031:1,2016-03-09T15:18:00Z,28.4073,-96.7122,0.803,1111122 
TCOON,ioos:station:TCOON:031:1,2016-03-09T16:24:00Z,28.4073,-96.7122,0.806,1111122 
TCOON,ioos:station:TCOON:031:1,2016-03-09T17:24:00Z,28.4073,-96.7122,0.72,1111122 
TCOON,ioos:station:TCOON:031:1,2016-03-09T18:24:00Z,28.4073,-96.7122,0.747,1111122 
TCOON,ioos:station:TCOON:031:1,2016-03-09T19:24:00Z,28.4073,-96.7122,0.715,1111122 
TCOON,ioos:station:TCOON:031:1,2016-03-09T20:24:00Z,28.4073,-96.7122,0.696,1111122 
TCOON,ioos:station:TCOON:031:1,2016-03-09T21:18:00Z,28.4073,-96.7122,0.687,1111122 
TCOON,ioos:station:TCOON:031:1,2016-03-09T22:24:00Z,28.4073,-96.7122,0.719,1111122 
TCOON,ioos:station:TCOON:031:1,2016-03-09T23:18:00Z,28.4073,-96.7122,0.705,1111122 
TCOON,ioos:station:TCOON:031:1,2016-03-10T00:18:00Z,28.4073,-96.7122,0.75,1111122 
TCOON,ioos:station:TCOON:031:1,2016-03-10T01:18:00Z,28.4073,-96.7122,0.758,1111122 
TCOON,ioos:station:TCOON:031:1,2016-03-10T02:18:00Z,28.4073,-96.7122,0.737,1111122 
TCOON,ioos:station:TCOON:031:1,2016-03-10T03:18:00Z,28.4073,-96.7122,0.756,1111122 
TCOON,ioos:station:TCOON:031:1,2016-03-10T04:18:00Z,28.4073,-96.7122,0.679,1111122 
TCOON,ioos:station:TCOON:031:1,2016-03-10T05:18:00Z,28.4073,-96.7122,0.817,1111122 
TCOON,ioos:station:TCOON:031:1,2016-03-10T06:24:00Z,28.4073,-96.7122,0.759,1111122 
TCOON,ioos:station:TCOON:031:1,2016-03-10T07:24:00Z,28.4073,-96.7122,0.705,1111122 
TCOON,ioos:station:TCOON:031:1,2016-03-10T08:24:00Z,28.4073,-96.7122,0.619,1111122 
TCOON,ioos:station:TCOON:031:1,2016-03-10T09:54:00Z,28.4073,-96.7122,0.667,1111122 
TCOON,ioos:station:TCOON:031:1,2016-03-10T10:24:00Z,28.4073,-96.7122,0.686,1111122 
TCOON,ioos:station:TCOON:031:1,2016-03-10T12:18:00Z,28.4073,-96.7122,0.708,1111122 
TCOON,ioos:station:TCOON:031:1,2016-03-10T13:18:00Z,28.4073,-96.7122,0.714,1111122 
TCOON,ioos:station:TCOON:031:1,2016-03-10T14:18:00Z,28.4073,-96.7122,0.726,1111122 
TCOON,ioos:station:TCOON:031:1,2016-03-10T15:18:00Z,28.4073,-96.7122,0.749,1111122 
TCOON,ioos:station:TCOON:031:1,2016-03-10T16:24:00Z,28.4073,-96.7122,0.697,1111122 
TCOON,ioos:station:TCOON:031:1,2016-03-10T17:18:00Z,28.4073,-96.7122,0.71,1111122 
TCOON,ioos:station:TCOON:031:1,2016-03-10T18:24:00Z,28.4073,-96.7122,0.759,1111122 
TCOON,ioos:station:TCOON:031:1,2016-03-10T19:24:00Z,28.4073,-96.7122,0.776,1111122 
TCOON,ioos:station:TCOON:031:1,2016-03-10T20:18:00Z,28.4073,-96.7122,0.755,1111122 
TCOON,ioos:station:TCOON:031:1,2016-03-10T21:18:00Z,28.4073,-96.7122,0.736,1111122 
TCOON,ioos:station:TCOON:031:1,2016-03-10T22:24:00Z,28.4073,-96.7122,0.74,1111122 
TCOON,ioos:station:TCOON:031:1,2016-03-10T23:24:00Z,28.4073,-96.7122,0.754,1111122 
TCOON,ioos:station:TCOON:031:1,2016-03-11T00:24:00Z,28.4073,-96.7122,0.739,1111122 
TCOON,ioos:station:TCOON:031:1,2016-03-11T01:24:00Z,28.4073,-96.7122,0.851,1111122 
TCOON,ioos:station:TCOON:031:1,2016-03-11T02:24:00Z,28.4073,-96.7122,0.81,1111122 
TCOON,ioos:station:TCOON:031:1,2016-03-11T03:18:00Z,28.4073,-96.7122,0.816,1111122 
TCOON,ioos:station:TCOON:031:1,2016-03-11T04:24:00Z,28.4073,-96.7122,0.829,1111122 
TCOON,ioos:station:TCOON:031:1,2016-03-11T05:24:00Z,28.4073,-96.7122,0.765,1111122 
TCOON,ioos:station:TCOON:031:1,2016-03-11T06:24:00Z,28.4073,-96.7122,0.845,1111122 
TCOON,ioos:station:TCOON:031:1,2016-03-11T07:24:00Z,28.4073,-96.7122,0.789,1111122 
TCOON,ioos:station:TCOON:031:1,2016-03-11T08:24:00Z,28.4073,-96.7122,0.758,1111122 
TCOON,ioos:station:TCOON:031:1,2016-03-11T09:42:00Z,28.4073,-96.7122,0.727,1111122 
TCOON,ioos:station:TCOON:031:1,2016-03-11T10:24:00Z,28.4073,-96.7122,0.748,1111122 
TCOON,ioos:station:TCOON:031:1,2016-03-11T11:24:00Z,28.4073,-96.7122,0.768,1111122 
TCOON,ioos:station:TCOON:031:1,2016-03-11T12:24:00Z,28.4073,-96.7122,0.765,1111122 
TCOON,ioos:station:TCOON:031:1,2016-03-11T13:24:00Z,28.4073,-96.7122,0.786,1111122 
TCOON,ioos:station:TCOON:031:1,2016-03-11T14:24:00Z,28.4073,-96.7122,0.822,1111122 
TCOON,ioos:station:TCOON:031:1,2016-03-11T15:18:00Z,28.4073,-96.7122,0.82,1111122 
TCOON,ioos:station:TCOON:031:1,2016-03-11T16:24:00Z,28.4073,-96.7122,0.787,1111122 
TCOON,ioos:station:TCOON:031:1,2016-03-11T17:30:00Z,28.4073,-96.7122,0.786,1111122 
TCOON,ioos:station:TCOON:031:1,2016-03-11T18:24:00Z,28.4073,-96.7122,0.792,1111122 
TCOON,ioos:station:TCOON:031:1,2016-03-11T19:24:00Z,28.4073,-96.7122,0.785,1111122 
TCOON,ioos:station:TCOON:031:1,2016-03-11T20:24:00Z,28.4073,-96.7122,0.782,1111122 
TCOON,ioos:station:TCOON:031:1,2016-03-11T21:24:00Z,28.4073,-96.7122,0.768,1111122 
TCOON,ioos:station:TCOON:031:1,2016-03-11T22:24:00Z,28.4073,-96.7122,0.78,1111122 
TCOON,ioos:station:TCOON:031:1,2016-03-11T23:18:00Z,28.4073,-96.7122,0.764,1111122 
TCOON,ioos:station:TCOON:031:1,2016-03-12T00:18:00Z,28.4073,-96.7122,0.778,1111122 
TCOON,ioos:station:TCOON:031:1,2016-03-12T01:18:00Z,28.4073,-96.7122,0.782,1111122 
TCOON,ioos:station:TCOON:031:1,2016-03-12T02:18:00Z,28.4073,-96.7122,0.758,1111122 
TCOON,ioos:station:TCOON:031:1,2016-03-12T03:24:00Z,28.4073,-96.7122,0.761,1111122 
TCOON,ioos:station:TCOON:031:1,2016-03-12T04:24:00Z,28.4073,-96.7122,0.774,1111122 
TCOON,ioos:station:TCOON:031:1,2016-03-12T07:00:00Z,28.4073,-96.7122,0.733,1111122 
TCOON,ioos:station:TCOON:031:1,2016-03-12T07:24:00Z,28.4073,-96.7122,0.729,1111122 
TCOON,ioos:station:TCOON:031:1,2016-03-12T08:24:00Z,28.4073,-96.7122,0.706,1111122 
TCOON,ioos:station:TCOON:031:1,2016-03-12T09:42:00Z,28.4073,-96.7122,0.696,1111122 
TCOON,ioos:station:TCOON:031:1,2016-03-12T10:24:00Z,28.4073,-96.7122,0.663,1111122 
TCOON,ioos:station:TCOON:031:1,2016-03-12T11:24:00Z,28.4073,-96.7122,0.629,1111122 
TCOON,ioos:station:TCOON:031:1,2016-03-12T12:24:00Z,28.4073,-96.7122,0.631,1111122 
TCOON,ioos:station:TCOON:031:1,2016-03-12T13:24:00Z,28.4073,-96.7122,0.627,1111122 
TCOON,ioos:station:TCOON:031:1,2016-03-12T14:24:00Z,28.4073,-96.7122,0.635,1111122 
TCOON,ioos:station:TCOON:031:1,2016-03-12T15:24:00Z,28.4073,-96.7122,0.638,1111122 
TCOON,ioos:station:TCOON:031:1,2016-03-12T16:24:00Z,28.4073,-96.7122,0.658,1111122 
TCOON,ioos:station:TCOON:031:1,2016-03-12T17:24:00Z,28.4073,-96.7122,0.673,1111122 
TCOON,ioos:station:TCOON:031:1,2016-03-12T18:24:00Z,28.4073,-96.7122,0.715,1111122 
TCOON,ioos:station:TCOON:031:1,2016-03-12T19:24:00Z,28.4073,-96.7122,0.675,1111122 
TCOON,ioos:station:TCOON:031:1,2016-03-12T20:24:00Z,28.4073,-96.7122,0.689,1111122 
TCOON,ioos:station:TCOON:031:1,2016-03-12T21:24:00Z,28.4073,-96.7122,0.698,1111122 
TCOON,ioos:station:TCOON:031:1,2016-03-12T22:24:00Z,28.4073,-96.7122,0.69,1111122 
TCOON,ioos:station:TCOON:031:1,2016-03-12T23:24:00Z,28.4073,-96.7122,0.678,1111122 
TCOON,ioos:station:TCOON:031:1,2016-03-13T00:24:00Z,28.4073,-96.7122,0.684,1111122 
TCOON,ioos:station:TCOON:031:1,2016-03-13T01:24:00Z,28.4073,-96.7122,0.677,1111122 
TCOON,ioos:station:TCOON:031:1,2016-03-13T02:24:00Z,28.4073,-96.7122,0.674,1111122 
TCOON,ioos:station:TCOON:031:1,2016-03-13T03:18:00Z,28.4073,-96.7122,0.669,1111122 
TCOON,ioos:station:TCOON:031:1,2016-03-13T04:24:00Z,28.4073,-96.7122,0.665,1111122 
TCOON,ioos:station:TCOON:031:1,2016-03-13T05:24:00Z,28.4073,-96.7122,0.669,1111122 
TCOON,ioos:station:TCOON:031:1,2016-03-13T06:24:00Z,28.4073,-96.7122,0.667,1111122 
TCOON,ioos:station:TCOON:031:1,2016-03-13T07:24:00Z,28.4073,-96.7122,0.681,1111122 
TCOON,ioos:station:TCOON:031:1,2016-03-13T08:24:00Z,28.4073,-96.7122,0.694,1111122 
TCOON,ioos:station:TCOON:031:1,2016-03-13T09:36:00Z,28.4073,-96.7122,0.675,1111122 
TCOON,ioos:station:TCOON:031:1,2016-03-13T10:24:00Z,28.4073,-96.7122,0.698,1111122 
TCOON,ioos:station:TCOON:031:1,2016-03-13T11:24:00Z,28.4073,-96.7122,0.702,1111122 
TCOON,ioos:station:TCOON:031:1,2016-03-13T12:24:00Z,28.4073,-96.7122,0.691,1111122 
TCOON,ioos:station:TCOON:031:1,2016-03-13T13:24:00Z,28.4073,-96.7122,0.642,1111122 
TCOON,ioos:station:TCOON:031:1,2016-03-13T14:24:00Z,28.4073,-96.7122,0.625,1111122 
TCOON,ioos:station:TCOON:031:1,2016-03-13T15:24:00Z,28.4073,-96.7122,0.683,1111122 
TCOON,ioos:station:TCOON:031:1,2016-03-13T16:24:00Z,28.4073,-96.7122,0.724,1111122 